• In Schweiz
  • Länderverzeichnis
  • Für 7 Tage
  • Wassertemperatur
  • Satellitenkarten
  • Wetterkarte
  • Widgets
  • user-avatar
    Anmelden

    Stündliche Wetter Thimbu

    Heute, 16 Oktober, Dienstag

    Zeit Temperatur Niederschläge Wind Luftdruck Luftfeuchtigkeit
    00:00 +5°C° 0 mm 1 m/S 524 mmHg 87%
    01:00 +5°C° 0 mm 1 m/S 524 mmHg 86%
    02:00 +5°C° 0 mm 1 m/S 524 mmHg 84%
    03:00 +4°C° 0 mm 1 m/S 523 mmHg 83%
    04:00 +4°C° 0 mm 1 m/S 523 mmHg 82%
    05:00 +4°C° 0 mm 1 m/S 523 mmHg 80%
    06:00 +4°C° 0 mm 1 m/S 523 mmHg 79%
    07:00 +7°C° 0 mm 1 m/S 525 mmHg 71%
    08:00 +9°C° 0 mm 1 m/S 527 mmHg 63%
    09:00 +12°C° 0 mm 1 m/S 529 mmHg 55%
    10:00 +13°C° 0 mm 2 m/S 529 mmHg 54%
    11:00 +13°C° 0 mm 2 m/S 529 mmHg 54%
    12:00 +13°C° 0 mm 3 m/S 529 mmHg 54%
    13:00 +13°C° 0 mm 3 m/S 528 mmHg 58%
    14:00 +12°C° 0 mm 3 m/S 527 mmHg 63%
    15:00 +11°C° 0 mm 3 m/S 526 mmHg 68%
    16:00 +10°C° 0 mm 2 m/S 526 mmHg 77%
    17:00 +9°C° 0 mm 1 m/S 525 mmHg 85%
    18:00 +8°C° 0 mm 1 m/S 524 mmHg 94%
    19:00 +7°C° 0 mm 1 m/S 524 mmHg 93%
    20:00 +7°C° 0 mm 1 m/S 524 mmHg 92%
    21:00 +6°C° 0 mm 1 m/S 524 mmHg 91%
    22:00 +6°C° 0 mm 1 m/S 524 mmHg 90%
    23:00 +6°C° 0 mm 1 m/S 524 mmHg 88%

    Morgen, 17 Oktober, Mittwoch

    Zeit Temperatur Niederschläge Wind Luftdruck Luftfeuchtigkeit
    00:00 +6°C° 0 mm 1 m/S 524 mmHg 87%
    01:00 +6°C° 0 mm 1 m/S 524 mmHg 86%
    02:00 +5°C° 0 mm 1 m/S 523 mmHg 86%
    03:00 +5°C° 0 mm 1 m/S 523 mmHg 86%
    04:00 +5°C° 0 mm 1 m/S 523 mmHg 85%
    05:00 +5°C° 0 mm 1 m/S 523 mmHg 84%
    06:00 +4°C° 0 mm 1 m/S 523 mmHg 83%
    07:00 +7°C° 0 mm 1 m/S 525 mmHg 74%
    08:00 +9°C° 0 mm 2 m/S 526 mmHg 65%
    09:00 +12°C° 0 mm 2 m/S 528 mmHg 55%
    10:00 +13°C° 0 mm 2 m/S 528 mmHg 55%
    11:00 +13°C° 0 mm 3 m/S 528 mmHg 54%
    12:00 +13°C° 0 mm 3 m/S 528 mmHg 54%
    13:00 +13°C° 0 mm 3 m/S 527 mmHg 58%
    14:00 +12°C° 0 mm 3 m/S 526 mmHg 62%
    15:00 +12°C° 0 mm 3 m/S 525 mmHg 67%
    16:00 +10°C° 0 mm 2 m/S 524 mmHg 75%
    17:00 +8°C° 0 mm 2 m/S 523 mmHg 84%
    18:00 +8°C° 0 mm 1 m/S 523 mmHg 93%
    19:00 +7°C° 0 mm 1 m/S 523 mmHg 93%
    20:00 +7°C° 0 mm 1 m/S 523 mmHg 92%
    21:00 +6°C° 0 mm 1 m/S 523 mmHg 92%
    22:00 +6°C° 0 mm 1 m/S 523 mmHg 91%
    23:00 +6°C° 0 mm 1 m/S 523 mmHg 90%

    übermorgen, 18 Oktober, Donnerstag

    Zeit Temperatur Niederschläge Wind Luftdruck Luftfeuchtigkeit
    00:00 +5°C° 0 mm 1 m/S 523 mmHg 89%
    01:00 +5°C° 0 mm 1 m/S 522 mmHg 88%
    02:00 +5°C° 0 mm 1 m/S 522 mmHg 87%
    03:00 +5°C° 0 mm 1 m/S 522 mmHg 87%
    04:00 +5°C° 0 mm 1 m/S 522 mmHg 86%
    05:00 +4°C° 0 mm 1 m/S 522 mmHg 85%
    06:00 +4°C° 0 mm 1 m/S 522 mmHg 84%
    07:00 +7°C° 0 mm 1 m/S 524 mmHg 76%
    08:00 +8°C° 0 mm 2 m/S 526 mmHg 67%
    09:00 +10°C° 0 mm 2 m/S 527 mmHg 58%
    10:00 +12°C° 0 mm 2 m/S 527 mmHg 58%
    11:00 +11°C° 0 mm 3 m/S 527 mmHg 58%
    12:00 +12°C° 0 mm 3 m/S 527 mmHg 58%
    13:00 +11°C° 0.1 mm 3 m/S 526 mmHg 61%
    14:00 +11°C° 0.1 mm 3 m/S 525 mmHg 64%
    15:00 +11°C° 0.1 mm 3 m/S 525 mmHg 67%
    16:00 +9°C° 0.1 mm 2 m/S 524 mmHg 75%
    17:00 +8°C° 0.1 mm 2 m/S 523 mmHg 84%
    18:00 +7°C° 0.1 mm 1 m/S 523 mmHg 93%
    19:00 +7°C° 0 mm 1 m/S 523 mmHg 92%
    20:00 +6°C° 0 mm 1 m/S 523 mmHg 92%
    21:00 +6°C° 0 mm 1 m/S 524 mmHg 91%
    22:00 +5°C° 0 mm 1 m/S 523 mmHg 90%
    23:00 +5°C° 0 mm 1 m/S 523 mmHg 88%

    19 Oktober, Freitag

    Zeit Temperatur Niederschläge Wind Luftdruck Luftfeuchtigkeit
    00:00 +5°C° 0 mm 1 m/S 523 mmHg 87%
    01:00 +4°C° 0 mm 1 m/S 523 mmHg 86%
    02:00 +4°C° 0 mm 1 m/S 522 mmHg 85%
    03:00 +4°C° 0 mm 1 m/S 522 mmHg 83%
    04:00 +4°C° 0 mm 1 m/S 522 mmHg 82%
    05:00 +3°C° 0 mm 1 m/S 522 mmHg 80%
    06:00 +3°C° 0 mm 1 m/S 522 mmHg 78%
    07:00 +6°C° 0 mm 1 m/S 524 mmHg 69%
    08:00 +7°C° 0 mm 2 m/S 526 mmHg 60%
    09:00 +10°C° 0 mm 2 m/S 528 mmHg 52%
    10:00 +12°C° 0 mm 2 m/S 528 mmHg 52%
    11:00 +11°C° 0 mm 3 m/S 528 mmHg 52%
    12:00 +12°C° 0 mm 3 m/S 528 mmHg 52%
    13:00 +11°C° 0 mm 3 m/S 527 mmHg 56%
    14:00 +11°C° 0 mm 3 m/S 527 mmHg 59%
    15:00 +11°C° 0 mm 3 m/S 526 mmHg 63%
    16:00 +9°C° 0 mm 2 m/S 525 mmHg 73%
    17:00 +7°C° 0 mm 2 m/S 525 mmHg 83%
    18:00 +7°C° 0 mm 1 m/S 524 mmHg 92%
    19:00 +6°C° 0 mm 1 m/S 524 mmHg 91%
    20:00 +6°C° 0 mm 1 m/S 525 mmHg 90%
    21:00 +5°C° 0 mm 1 m/S 525 mmHg 88%
    22:00 +5°C° 0 mm 1 m/S 525 mmHg 86%
    23:00 +5°C° 0 mm 1 m/S 524 mmHg 84%

    20 Oktober, Samstag

    Zeit Temperatur Niederschläge Wind Luftdruck Luftfeuchtigkeit
    00:00 +4°C° 0 mm 1 m/S 524 mmHg 82%
    01:00 +4°C° 0 mm 1 m/S 524 mmHg 81%
    02:00 +4°C° 0 mm 1 m/S 524 mmHg 79%
    03:00 +4°C° 0 mm 1 m/S 523 mmHg 78%
    04:00 +2°C° 0 mm 2 m/S 523 mmHg 76%
    05:00 +2°C° 0 mm 2 m/S 523 mmHg 75%
    06:00 +2°C° 0 mm 2 m/S 524 mmHg 73%
    07:00 +5°C° 0 mm 2 m/S 526 mmHg 65%
    08:00 +8°C° 0 mm 2 m/S 528 mmHg 56%
    09:00 +10°C° 0 mm 2 m/S 529 mmHg 48%
    10:00 +12°C° 0 mm 2 m/S 529 mmHg 48%
    11:00 +12°C° 0 mm 3 m/S 529 mmHg 47%
    12:00 +13°C° 0 mm 3 m/S 529 mmHg 47%
    13:00 +12°C° 0.1 mm 3 m/S 528 mmHg 53%
    14:00 +11°C° 0.1 mm 3 m/S 527 mmHg 59%
    15:00 +11°C° 0.1 mm 3 m/S 527 mmHg 65%
    16:00 +9°C° 0.1 mm 2 m/S 526 mmHg 74%
    17:00 +7°C° 0.1 mm 2 m/S 525 mmHg 83%
    18:00 +7°C° 0.1 mm 1 m/S 525 mmHg 93%
    19:00 +6°C° 0 mm 1 m/S 525 mmHg 92%
    20:00 +6°C° 0 mm 1 m/S 525 mmHg 91%
    21:00 +6°C° 0 mm 1 m/S 525 mmHg 89%
    22:00 +5°C° 0 mm 1 m/S 525 mmHg 88%
    23:00 +5°C° 0 mm 1 m/S 525 mmHg 86%

    21 Oktober, Sonntag

    Zeit Temperatur Niederschläge Wind Luftdruck Luftfeuchtigkeit
    00:00 +5°C° 0 mm 1 m/S 524 mmHg 84%
    01:00 +3°C° 0 mm 2 m/S 524 mmHg 82%
    02:00 +3°C° 0 mm 2 m/S 524 mmHg 80%
    03:00 +3°C° 0 mm 2 m/S 523 mmHg 79%
    04:00 +2°C° 0 mm 2 m/S 523 mmHg 77%
    05:00 +2°C° 0 mm 2 m/S 524 mmHg 75%
    06:00 +2°C° 0 mm 2 m/S 524 mmHg 74%
    07:00 +5°C° 0 mm 2 m/S 526 mmHg 65%
    08:00 +7°C° 0 mm 2 m/S 527 mmHg 57%
    09:00 +10°C° 0 mm 2 m/S 529 mmHg 49%
    10:00 +12°C° 0 mm 2 m/S 529 mmHg 48%
    11:00 +12°C° 0 mm 3 m/S 529 mmHg 47%
    12:00 +13°C° 0 mm 3 m/S 529 mmHg 45%
    13:00 +12°C° 0 mm 3 m/S 528 mmHg 51%
    14:00 +12°C° 0 mm 3 m/S 527 mmHg 56%
    15:00 +11°C° 0 mm 3 m/S 527 mmHg 62%
    16:00 +9°C° 0.1 mm 2 m/S 526 mmHg 72%
    17:00 +7°C° 0.1 mm 2 m/S 525 mmHg 82%
    18:00 +7°C° 0.1 mm 1 m/S 524 mmHg 92%
    19:00 +6°C° 0 mm 1 m/S 524 mmHg 91%
    20:00 +6°C° 0 mm 1 m/S 525 mmHg 90%
    21:00 +5°C° 0 mm 1 m/S 525 mmHg 88%
    22:00 +4°C° 0 mm 2 m/S 525 mmHg 87%
    23:00 +4°C° 0 mm 2 m/S 524 mmHg 85%
    Mehr zeigen